This is the latest recevied weather packets stored in our database for station/object N8TWM-13. If no packets are shown the sender has not sent any weather packets the latest 10 day(s).
| Time | Temp. | Humidity | Pressure | Rain* | Wind** | Luminosity | Snow |
|---|---|---|---|---|---|---|---|
| 1777553080 | 5.56° C | 91% | 1013.6 hPa | 0 mm | - | 98 W/m² | - |
| 1777552779 | 5.56° C | 91% | 1013.5 hPa | 0 mm | - | 69 W/m² | - |
| 1777552475 | 5° C | 91% | 1013.3 hPa | 0 mm | - | 81 W/m² | - |
| 1777552172 | 5° C | 92% | 1013.4 hPa | 0 mm | - | 65 W/m² | - |
| 1777551869 | 5° C | 93% | 1013.4 hPa | 0 mm | - | 65 W/m² | - |
| 1777551567 | 5° C | 93% | 1013.4 hPa | 0 mm | - | 53 W/m² | - |
| 1777551264 | 5° C | 94% | 1013.5 hPa | 0 mm | - | 46 W/m² | - |
| 1777550960 | 5° C | 94% | 1013.3 hPa | 0 mm | - | 48 W/m² | - |
| 1777550657 | 5° C | 94% | 1013.3 hPa | 0 mm | - | 39 W/m² | - |
| 1777550353 | 5° C | 94% | 1013.1 hPa | 0 mm | - | 29 W/m² | - |
| 1777550049 | 5° C | 95% | 1013.3 hPa | 0 mm | - | 23 W/m² | - |
| 1777549747 | 4.44° C | 95% | 1013.3 hPa | 0 mm | - | 34 W/m² | - |
| 1777549441 | 4.44° C | 95% | 1013.1 hPa | 0 mm | - | 19 W/m² | - |
| 1777549138 | 4.44° C | 95% | 1013.1 hPa | 0 mm | - | 14 W/m² | - |
| 1777548834 | 4.44° C | 95% | 1012.9 hPa | 0 mm | - | 10 W/m² | - |
| 1777548532 | 4.44° C | 95% | 1013.1 hPa | 0 mm | - | 9 W/m² | - |
| 1777548229 | 5° C | 95% | 1012.9 hPa | 0 mm | - | 9 W/m² | - |
| 1777547925 | 5° C | 96% | 1012.9 hPa | 0 mm | - | 9 W/m² | - |
| 1777547621 | 4.44° C | 96% | 1013 hPa | 0 mm | - | 8 W/m² | - |
| 1777547318 | 4.44° C | 96% | 1012.7 hPa | 0 mm | - | 7 W/m² | - |
| 1777547016 | 4.44° C | 96% | 1012.8 hPa | 0 mm | - | 4 W/m² | - |
| 1777546713 | 4.44° C | 96% | 1012.7 hPa | 0 mm | - | 3 W/m² | - |
| 1777546409 | 4.44° C | 96% | 1012.8 hPa | 0 mm | - | 3 W/m² | - |
| 1777546106 | 4.44° C | 96% | 1012.9 hPa | 0 mm | - | 2 W/m² | - |
| 1777545802 | 4.44° C | 96% | 1012.8 hPa | 0 mm | - | 0 W/m² | - |
* Rain latest hour (hover to see other rain measurements)
** Current wind speed in m/s (hover to see current wind gust speed)